| time (UTC) | temp F | wind direction | speed MPH | gust MPH | rain 1hr in | rain 24hr in | rain mn in | humidity % | barometer mb |
| 20260902061516 | 68 | 45 | 3.0 | 5.0 | 0.26 | 0.59 | 0.36 | 95 | 1010.9 |
| 20260902060517 | 68 | 45 | 3.0 | 8.0 | 0.29 | 0.55 | 0.32 | 95 | 1010.3 |
| 20260902055516 | 68 | 90 | 1.0 | 3.0 | 0.30 | 0.51 | 0.28 | 95 | 1011.4 |
| 20260902054516 | 68 | 90 | 1.0 | 4.0 | 0.29 | 0.47 | 0.24 | 95 | 1012.1 |
| 20260902053516 | 68 | 45 | 2.0 | 4.0 | 0.30 | 0.43 | 0.20 | 95 | 1012.5 |
| 20260902052516 | 68 | 45 | 1.0 | 5.0 | 0.37 | 0.39 | 0.16 | 94 | 1013.5 |
| 20260902051516 | 68 | 135 | 2.0 | 5.0 | 0.33 | 0.33 | 0.10 | 94 | 1014.7 |
| 20260902050516 | 71 | 113 | 10.0 | 22.0 | 0.26 | 0.26 | 0.03 | 92 | 1017.9 |
| 20260902045516 | 72 | 90 | 2.0 | 4.0 | 0.21 | 0.21 | 0.21 | 94 | 1013.4 |
| 20260902044516 | 72 | 45 | 1.0 | 3.0 | 0.18 | 0.18 | 0.18 | 94 | 1013.4 |
| 20260902043537 | 73 | 90 | 1.0 | 6.0 | 0.13 | 0.13 | 0.13 | 92 | 1012.8 |
| 20260902042516 | 75 | 113 | 2.0 | 4.0 | 0.02 | 0.02 | 0.02 | 86 | 1013.6 |
| 20260902041536 | 76 | 0.0 | 1.0 | 0.00 | 0.00 | 0.00 | 83 | 1012.5 | |
| 20260902040516 | 76 | 23 | 1.0 | 3.0 | 0.00 | 0.00 | 0.00 | 82 | 1012.8 |
| 20260902035517 | 76 | 23 | 2.0 | 4.0 | 0.00 | 0.00 | 0.00 | 82 | 1012.6 |
| 20260902034516 | 76 | 23 | 2.0 | 5.0 | 0.00 | 0.00 | 0.00 | 83 | 1012.1 |
| 20260902033516 | 75 | 45 | 2.0 | 4.0 | 0.00 | 0.00 | 0.00 | 84 | 1012.2 |
| 20260902032516 | 75 | 45 | 2.0 | 5.0 | 0.00 | 0.00 | 0.00 | 85 | 1012.2 |
| 20260902031536 | 75 | 23 | 2.0 | 3.0 | 0.00 | 0.00 | 0.00 | 85 | 1012.3 |
| 20260902030516 | 75 | 23 | 1.0 | 3.0 | 0.00 | 0.00 | 0.00 | 85 | 1012.7 |
| 20260902025516 | 75 | 0.0 | 2.0 | 0.00 | 0.00 | 0.00 | 86 | 1012.5 | |
| 20260902024516 | 76 | 23 | 1.0 | 3.0 | 0.00 | 0.00 | 0.00 | 85 | 1013.0 |
| 20260902023516 | 76 | 45 | 1.0 | 3.0 | 0.00 | 0.00 | 0.00 | 85 | 1012.8 |
| 20260902022516 | 76 | 45 | 1.0 | 2.0 | 0.00 | 0.00 | 0.00 | 85 | 1012.4 |
| 20260902021516 | 76 | 45 | 1.0 | 3.0 | 0.00 | 0.00 | 0.00 | 84 | 1012.4 |
| 20260902020516 | 76 | 0.0 | 0.0 | 0.00 | 0.00 | 0.00 | 84 | 1012.4 | |
| 20260902015617 | 76 | 45 | 1.0 | 3.0 | 0.00 | 0.00 | 0.00 | 84 | 1012.5 |
| 20260902014516 | 76 | 45 | 1.0 | 3.0 | 0.00 | 0.00 | 0.00 | 84 | 1012.2 |
| 20260902013516 | 77 | 0.0 | 3.0 | 0.00 | 0.00 | 0.00 | 84 | 1012.2 | |
| 20260902012516 | 77 | 0.0 | 0.0 | 0.00 | 0.00 | 0.00 | 83 | 1012.2 | |
| 20260902011516 | 77 | 0.0 | 0.0 | 0.00 | 0.00 | 0.00 | 83 | 1012.2 | |
| 20260902010516 | 78 | 45 | 2.0 | 3.0 | 0.00 | 0.00 | 0.00 | 83 | 1012.1 |
| 20260902005517 | 78 | 45 | 1.0 | 2.0 | 0.00 | 0.00 | 0.00 | 82 | 1012.1 |
| 20260902004536 | 79 | 23 | 1.0 | 3.0 | 0.00 | 0.00 | 0.00 | 82 | 1012.3 |
| 20260902003516 | 79 | 45 | 1.0 | 3.0 | 0.00 | 0.00 | 0.00 | 81 | 1012.3 |
| 20260902002516 | 80 | 23 | 1.0 | 3.0 | 0.00 | 0.00 | 0.00 | 80 | 1012.2 |
| 20260902001556 | 80 | 23 | 2.0 | 5.0 | 0.00 | 0.00 | 0.00 | 80 | 1012.1 |
| 20260902000516 | 80 | 23 | 1.0 | 3.0 | 0.00 | 0.00 | 0.00 | 81 | 1012.3 |
| 20260901235516 | 81 | 23 | 1.0 | 4.0 | 0.00 | 0.00 | 0.00 | 80 | 1012.4 |
| 20260901234516 | 81 | 23 | 2.0 | 5.0 | 0.00 | 0.00 | 0.00 | 79 | 1012.4 |
| 20260901233516 | 82 | 45 | 2.0 | 4.0 | 0.00 | 0.00 | 0.00 | 79 | 1012.5 |
| 20260901232516 | 82 | 45 | 2.0 | 6.0 | 0.00 | 0.00 | 0.00 | 79 | 1012.6 |
| 20260901231515 | 83 | 23 | 1.0 | 3.0 | 0.00 | 0.00 | 0.00 | 78 | 1012.6 |
| 20260901230516 | 83 | 23 | 1.0 | 3.0 | 0.00 | 0.00 | 0.00 | 78 | 1012.5 |
| 20260901225516 | 83 | 45 | 1.0 | 3.0 | 0.00 | 0.00 | 0.00 | 77 | 1012.6 |
| 20260901224536 | 83 | 45 | 2.0 | 4.0 | 0.00 | 0.00 | 0.00 | 77 | 1012.5 |
| 20260901223516 | 83 | 45 | 1.0 | 3.0 | 0.00 | 0.00 | 0.00 | 77 | 1012.6 |
| 20260901222517 | 83 | 0.0 | 2.0 | 0.00 | 0.00 | 0.00 | 77 | 1012.6 | |
| 20260901221516 | 83 | 0.0 | 3.0 | 0.00 | 0.00 | 0.00 | 78 | 1012.7 | |
| 20260901220536 | 83 | 45 | 1.0 | 3.0 | 0.00 | 0.00 | 0.00 | 76 | 1012.5 |
| 20260901215516 | 83 | 45 | 1.0 | 3.0 | 0.00 | 0.00 | 0.00 | 77 | 1012.6 |
| 20260901214516 | 84 | 45 | 1.0 | 2.0 | 0.00 | 0.00 | 0.00 | 77 | 1012.6 |
| 20260901213516 | 83 | 0.0 | 2.0 | 0.00 | 0.00 | 0.00 | 76 | 1012.7 | |
| 20260901212516 | 84 | 45 | 1.0 | 2.0 | 0.00 | 0.00 | 0.00 | 76 | 1012.9 |
| 20260901211516 | 84 | 0.0 | 2.0 | 0.00 | 0.00 | 0.00 | 75 | 1012.8 | |
| 20260901210516 | 84 | 0.0 | 2.0 | 0.00 | 0.00 | 0.00 | 75 | 1012.8 | |
| 20260901205515 | 84 | 45 | 1.0 | 2.0 | 0.00 | 0.00 | 0.00 | 75 | 1012.9 |
| 20260901204515 | 84 | 45 | 1.0 | 3.0 | 0.00 | 0.00 | 0.00 | 75 | 1012.9 |
| 20260901203515 | 84 | 45 | 1.0 | 3.0 | 0.00 | 0.00 | 0.00 | 74 | 1012.9 |
| 20260901202515 | 84 | 68 | 1.0 | 4.0 | 0.00 | 0.00 | 0.00 | 73 | 1012.9 |
| 20260901201515 | 84 | 68 | 1.0 | 2.0 | 0.00 | 0.00 | 0.00 | 74 | 1013.0 |
| 20260901200516 | 84 | 0.0 | 2.0 | 0.00 | 0.00 | 0.00 | 76 | 1013.1 | |
| 20260901195516 | 84 | 68 | 1.0 | 4.0 | 0.00 | 0.00 | 0.00 | 73 | 1013.1 |
| 20260901194517 | 84 | 90 | 1.0 | 3.0 | 0.00 | 0.00 | 0.00 | 72 | 1013.1 |
| 20260901193515 | 84 | 45 | 1.0 | 3.0 | 0.00 | 0.00 | 0.00 | 73 | 1013.1 |
| 20260901192537 | 84 | 45 | 1.0 | 3.0 | 0.00 | 0.00 | 0.00 | 73 | 1013.1 |
| 20260901191515 | 84 | 45 | 1.0 | 4.0 | 0.00 | 0.00 | 0.00 | 73 | 1013.1 |
| 20260901190518 | 84 | 68 | 1.0 | 3.0 | 0.00 | 0.00 | 0.00 | 70 | 1013.3 |
| 20260901185518 | 84 | 68 | 1.0 | 3.0 | 0.00 | 0.00 | 0.00 | 71 | 1013.1 |
| 20260901184538 | 83 | 0.0 | 0.0 | 0.00 | 0.00 | 0.00 | 75 | 1013.1 | |
| 20260901183517 | 83 | 0.0 | 2.0 | 0.00 | 0.00 | 0.00 | 73 | 1013.5 | |
| 20260901182537 | 83 | 135 | 1.0 | 3.0 | 0.00 | 0.00 | 0.00 | 70 | 1013.7 |
| 20260901181517 | 84 | 0.0 | 0.0 | 0.00 | 0.00 | 0.00 | 70 | 1014.0 | |
| 20260901180517 | 83 | 68 | 1.0 | 3.0 | 0.00 | 0.00 | 0.00 | 72 | 1014.0 |
| 20260901175518 | 84 | 68 | 1.0 | 3.0 | 0.00 | 0.00 | 0.00 | 71 | 1014.1 |
| 20260901174518 | 82 | 45 | 1.0 | 3.0 | 0.00 | 0.00 | 0.00 | 73 | 1014.1 |
| 20260901173515 | 82 | 45 | 1.0 | 3.0 | 0.00 | 0.00 | 0.00 | 72 | 1014.3 |
| 20260901172517 | 82 | 45 | 1.0 | 3.0 | 0.00 | 0.00 | 0.00 | 75 | 1013.9 |
| 20260901171518 | 82 | 45 | 1.0 | 3.0 | 0.00 | 0.00 | 0.00 | 72 | 1014.3 |
| 20260901170518 | 82 | 45 | 1.0 | 4.0 | 0.00 | 0.00 | 0.00 | 71 | 1014.5 |
| 20260901165518 | 82 | 23 | 1.0 | 3.0 | 0.00 | 0.00 | 0.00 | 72 | 1014.6 |
| 20260901164518 | 81 | 0 | 1.0 | 5.0 | 0.00 | 0.00 | 0.00 | 75 | 1014.4 |
| 20260901163517 | 80 | 23 | 2.0 | 4.0 | 0.00 | 0.00 | 0.00 | 76 | 1014.4 |
| 20260901162517 | 80 | 23 | 2.0 | 4.0 | 0.00 | 0.00 | 0.00 | 77 | 1014.4 |
| 20260901161537 | 79 | 45 | 1.0 | 4.0 | 0.00 | 0.00 | 0.00 | 76 | 1014.5 |
| 20260901160517 | 79 | 45 | 1.0 | 3.0 | 0.00 | 0.00 | 0.00 | 77 | 1014.5 |
| 20260901155517 | 79 | 0.0 | 0.0 | 0.00 | 0.00 | 0.00 | 75 | 1014.4 | |
| 20260901154518 | 80 | 0.0 | 2.0 | 0.00 | 0.00 | 0.00 | 75 | 1014.5 | |
| 20260901153519 | 78 | 23 | 1.0 | 2.0 | 0.00 | 0.00 | 0.00 | 77 | 1014.5 |
| 20260901152538 | 77 | 23 | 1.0 | 4.0 | 0.00 | 0.00 | 0.00 | 76 | 1014.4 |
| 20260901151518 | 76 | 23 | 1.0 | 2.0 | 0.00 | 0.00 | 0.00 | 78 | 1014.4 |
| 20260901150538 | 75 | 0.0 | 1.0 | 0.00 | 0.00 | 0.00 | 80 | 1014.3 | |
| 20260901145558 | 75 | 23 | 1.0 | 3.0 | 0.00 | 0.00 | 0.00 | 80 | 1014.4 |
| 20260901144518 | 75 | 0.0 | 0.0 | 0.00 | 0.00 | 0.00 | 80 | 1014.5 | |
| 20260901143518 | 74 | 0.0 | 0.0 | 0.00 | 0.00 | 0.00 | 84 | 1014.4 | |
| 20260901142518 | 73 | 0.0 | 0.0 | 0.00 | 0.00 | 0.00 | 84 | 1014.3 | |
| 20260901141518 | 73 | 0.0 | 0.0 | 0.00 | 0.00 | 0.00 | 85 | 1014.5 | |
| 20260901140518 | 73 | 0.0 | 0.0 | 0.00 | 0.00 | 0.00 | 86 | 1014.6 | |
| 20260901135518 | 72 | 0.0 | 0.0 | 0.00 | 0.00 | 0.00 | 88 | 1014.6 | |
| 20260901134518 | 71 | 0.0 | 0.0 | 0.00 | 0.00 | 0.00 | 90 | 1014.6 | |
| 20260901133517 | 69 | 0.0 | 0.0 | 0.00 | 0.00 | 0.00 | 92 | 1014.6 | |
| 20260901132517 | 68 | 0.0 | 0.0 | 0.00 | 0.00 | 0.00 | 94 | 1014.8 | |
| 20260901131517 | 67 | 0.0 | 0.0 | 0.00 | 0.00 | 0.00 | 96 | 1014.7 | |
| 20260901130517 | 66 | 0.0 | 0.0 | 0.00 | 0.00 | 0.00 | 96 | 1014.5 | |
| 20260901125537 | 65 | 0.0 | 0.0 | 0.00 | 0.00 | 0.00 | 96 | 1014.4 | |
| 20260901124537 | 65 | 0.0 | 0.0 | 0.00 | 0.00 | 0.00 | 96 | 1014.4 | |
| 20260901123537 | 65 | 0.0 | 0.0 | 0.00 | 0.00 | 0.00 | 96 | 1014.2 | |
| 20260901122517 | 64 | 0.0 | 0.0 | 0.00 | 0.00 | 0.00 | 96 | 1014.2 | |
| 20260901121517 | 64 | 0.0 | 0.0 | 0.00 | 0.00 | 0.00 | 96 | 1014.2 | |
| 20260901120517 | 64 | 0.0 | 0.0 | 0.00 | 0.00 | 0.00 | 96 | 1014.1 | |
| 20260901115517 | 64 | 0.0 | 0.0 | 0.00 | 0.00 | 0.00 | 96 | 1014.0 | |
| 20260901114517 | 64 | 0.0 | 1.0 | 0.00 | 0.00 | 0.00 | 96 | 1014.2 | |
| 20260901113518 | 64 | 0.0 | 0.0 | 0.00 | 0.00 | 0.00 | 96 | 1014.1 | |
| 20260901112517 | 64 | 0.0 | 0.0 | 0.00 | 0.00 | 0.00 | 96 | 1014.0 | |
| 20260901111517 | 64 | 0.0 | 0.0 | 0.00 | 0.00 | 0.00 | 96 | 1013.9 | |
| 20260901110517 | 64 | 0.0 | 0.0 | 0.00 | 0.00 | 0.00 | 96 | 1014.0 | |
| 20260901105517 | 64 | 0.0 | 0.0 | 0.00 | 0.00 | 0.00 | 96 | 1013.9 | |
| 20260901104517 | 64 | 0.0 | 0.0 | 0.00 | 0.00 | 0.00 | 96 | 1013.8 | |
| 20260901103517 | 64 | 0.0 | 0.0 | 0.00 | 0.00 | 0.00 | 96 | 1013.8 | |
| 20260901102557 | 64 | 0.0 | 0.0 | 0.00 | 0.00 | 0.00 | 96 | 1013.8 | |
| 20260901101517 | 64 | 0.0 | 0.0 | 0.00 | 0.00 | 0.00 | 96 | 1013.7 | |
| 20260901100517 | 64 | 0.0 | 0.0 | 0.00 | 0.00 | 0.00 | 96 | 1013.6 | |
| 20260901095517 | 64 | 0.0 | 0.0 | 0.00 | 0.00 | 0.00 | 96 | 1013.5 | |
| 20260901094517 | 64 | 0.0 | 0.0 | 0.00 | 0.00 | 0.00 | 96 | 1013.5 | |
| 20260901093517 | 64 | 0.0 | 0.0 | 0.00 | 0.00 | 0.00 | 96 | 1013.5 | |
| 20260901092517 | 64 | 0.0 | 0.0 | 0.00 | 0.00 | 0.00 | 96 | 1013.6 | |
| 20260901091517 | 64 | 0.0 | 0.0 | 0.00 | 0.00 | 0.00 | 96 | 1013.5 | |
| 20260901090517 | 64 | 0.0 | 0.0 | 0.00 | 0.00 | 0.00 | 96 | 1013.6 | |
| 20260901085557 | 64 | 0.0 | 0.0 | 0.00 | 0.00 | 0.00 | 96 | 1013.4 | |
| 20260901084537 | 65 | 0.0 | 0.0 | 0.00 | 0.00 | 0.00 | 95 | 1013.4 | |
| 20260901083517 | 65 | 0.0 | 0.0 | 0.00 | 0.00 | 0.00 | 96 | 1013.3 | |
| 20260901082516 | 65 | 0.0 | 0.0 | 0.00 | 0.00 | 0.00 | 95 | 1013.4 | |
| 20260901081517 | 65 | 0.0 | 0.0 | 0.00 | 0.00 | 0.00 | 95 | 1013.7 | |
| 20260901080541 | 65 | 0.0 | 0.0 | 0.00 | 0.00 | 0.00 | 95 | 1013.6 | |
| 20260901075517 | 65 | 0.0 | 0.0 | 0.00 | 0.00 | 0.00 | 95 | 1013.5 | |
| 20260901074517 | 65 | 0.0 | 0.0 | 0.00 | 0.00 | 0.00 | 95 | 1013.6 | |
| 20260901073537 | 65 | 0.0 | 0.0 | 0.00 | 0.00 | 0.00 | 95 | 1013.5 | |
| 20260901072516 | 65 | 0.0 | 0.0 | 0.00 | 0.00 | 0.00 | 95 | 1013.5 | |
| 20260901071537 | 66 | 0.0 | 0.0 | 0.00 | 0.00 | 0.00 | 95 | 1013.5 | |
| 20260901070517 | 66 | 0.0 | 0.0 | 0.00 | 0.00 | 0.00 | 95 | 1013.6 | |
| 20260901065517 | 66 | 0.0 | 0.0 | 0.00 | 0.00 | 0.00 | 95 | 1013.6 | |
| 20260901064537 | 66 | 0.0 | 0.0 | 0.00 | 0.00 | 0.00 | 95 | 1013.7 | |
| 20260901063517 | 66 | 0.0 | 0.0 | 0.00 | 0.00 | 0.00 | 95 | 1013.7 | |
| 20260901062519 | 66 | 0.0 | 0.0 | 0.00 | 0.00 | 0.00 | 95 | 1013.9 |